Location: Table Mountain
(47.2500°N, 120.5778°W)
Time: 09:14:02
(UTC-07:00)

Tiangong 1 - Pass Details

Date: 09 October 2017
Orbit: 293 x 320 km, 42.8° (Epoch: 20 October)

Event Time Altitude Azimuth Distance (km) Brightness Sun altitude
Rises 19:11:00 0° 246° (WSW) 2,035 6.2 -8.6°
Reaches altitude 10° 19:13:07 10° 234° (SW) 1,201 4.5 -8.9°
Maximum altitude 19:15:29 27° 173° (S) 629 2.1 -9.3°
Enters shadow 19:17:21 13° 117° (ESE) 1,023 2.7 -9.6°
